User: anonymous   Login
Location: Bemmer
(51.5498°N, 5.6249°E)
Time: 13:37:42
(UTC+00:00)
Language:

ASTEX 1 - Orbit

View from above orbital plane
View from above orbital plane
View from above satellite
View from above satellite

Ground track
Ground track

The orbit data is extracted from the following two-line orbital elements,

1 05560U 71089A   21126.90958934  .00000098  00000-0  26493-4 0  9995
2 05560  92.7140 301.0997 0013943 283.0804  76.8844 14.48128158606332
Epoch (UTC): 06 May 2021 21:49:48
Eccentricity: 0.0013943
inclination: 92.7140°
perigee height: 722 km
apogee height: 741 km
right ascension of ascending node: 301.0997°
argument of perigee: 283.0804°
revolutions per day: 14.48128158
mean anomaly at epoch: 76.8844°
orbit number at epoch: 60633

The dashed part of the orbit path shows where the satellite is in the earth's shadow,  

DLR